Location: Châteauvieux
(47.2310°N, 1.3828°E)
Time: 00:56:58
(UTC+00:00)

Aureole 1 Rocket - Pass Details

Date: 15 May 2026
Orbit: 372 x 1149 km, 73.9° (Epoch: 9 June)

Event Time Altitude Azimuth Distance (km) Brightness Sun altitude
Rises 22:15:16 0° 337° (NNW) 3,328 8.4 -20.3°
Reaches altitude 10° 22:17:30 10° 338° (NNW) 2,501 7.4 -20.5°
Maximum altitude 22:23:24 86° 67° (ENE) 993 4.0 -20.9°
Enters shadow 22:26:16 38° 155° (SSE) 1,535 4.5 -21.0°
